COSMOS 1818 COOLANT, 50792

Orbit data source: Space-Track

COSMOS 1818 COOLANT, 50792 is space debris in LEO originally from a launch on Sun, 01 Feb 1987 UTC launched from the Tyuratam Missile And Space Complex (TTMTR). Debris objects in space refer to the collection of defunct objects orbiting the Earth. Examples of debris include non-operational satellites, rocket bodies, and fragments generated from explosions, collisions, or faulty payload assembly.

Loading next visibility...
Identifier
50792, 1987-011BH
Orbit
LEO
Country
Flag of CISCIS
Related business
Manufacturer
Unknown
Mission
Spacecraft
Bus & Motor
Unknown
Mass
Unknown
Launch date (UTC)
1987-02-01 (39 years ago)
Launch vehicle
Unknown
Launch site
Tyuratam Missile And Space Complex (TTMTR)
Object type
Payload
Rocket body
Debris
Shape & HBR
Unknown shape, 0.1 m
Radar Cross Section
Small (<0.1 m²)

Expand to show TLE details & history
Last TLE update: 4 days ago

TLE from 4 days ago
0 COSMOS 1818 COOLANT
1 50792U 87011BH  26169.77119250  .00000439  00000-0  17370-3 0  9993
2 50792  65.0081 175.3369 0019959 283.1030 256.8299 14.39245449101041
Epoch: 2026-06-18T18:30Z
TLE epoch observation values (Epoch: 2026-06-18T18:30:31.032Z)
Latitude
0.16498°
Longitude
170.62137°
Altitude
766.225 km
Speed
7.47 km/s
True Right ascension
23h 41m 02s
True Declination
0° 09' 50"
Sunlit
Object was in daylight at epoch
Visualization orbit readout
Latitude
Unknown
Longitude
Unknown
Altitude
Unknown
Speed
Unknown
Apparent Right ascension
Unknown
Apparent Declination
Unknown
Sunlit
N/A
Visualization observer readout
Local Sidereal Time
21:32:41
Azimuth
Unknown
Elevation
Unknown
Doppler factor
Unknown
Orbital elements
Apogee altitude
773.811 km
Perigee altitude
745.318 km
Semi-major axis
7,137.701 km
Eccentricity
0.002
Inclination
65.0081°
RAAN
175.3369°
Arg. of periapsis
283.103°
True anomaly
256.60733°
Mean anomaly
256.8299°
Eccentric anomaly
256.7186°
Mean motion
3.5992 °/min
Orbital period
100.02 mins
BSTAR
0.0001737
Loading maneuver chart data...
Computing Atmospheric mass density...

Documentation

Showing up to 5 results
|